Flag for U.S.A. Weather past 2 weeks in Charleston, West Virginia, U.S.A.

Now
39 °F

Fog.


Feels Like: 39 °F
Forecast: 40 / 61 °F
Wind: No wind

Location: Yeager Airport

Current Time: Oct 20, 2014 at 10:00:37 AM

Latest Report: Oct 20, 2014 at 8:54 AM


Visibility: 4 mi

Pressure: 30.08 "Hg

Humidity: 96%

Dew point: 38 °F

Location of CharlestonLocation

Historic Weather in Charleston — Graph

°F

Charleston temperature yesterday

Maximum temperature yesterday: 57 °F (at 4:54 PM)
Minimum temperature yesterday: 41 °F (at 10:54 PM)
Average temperature yesterday: 49 °F

Past Weeks' High & Low Weather Summary

 TemperatureHumidityPressure
High81 °F (Oct 13, 2:54 PM)100% (Oct 8, 7:54 AM)30.22 "Hg (Oct 8, 7:54 AM)
Low35 °F (Oct 20, 7:54 AM)33% (Oct 5, 3:54 PM)29.63 "Hg (Oct 14, 4:54 PM)
Average58 °F78%29.95 "Hg
* Reported Oct 5 8:54 AM — Oct 20 8:54 AM, Charleston, Weather by CustomWeather, © 2014

Note: Actual official high and low records may vary slightly from our data, if they occured in-between our weather recording intervals... More about our weather records

Advertising

Charleston weather history for previous 24 hours

 ConditionsComfort  
Time TempWeatherWind HumidityBarometerVisibility
8:54 AM
Oct 20
39 °FFog.No wind96%30.08 "Hg4 mi
7:54 AM35 °FFog.No wind96%30.08 "Hg2 mi
6:54 AM36 °FFog.No wind100%30.07 "Hg2 mi
5:54 AM37 °FFog.No wind96%30.07 "Hg2 mi
4:54 AM37 °FFog.No wind96%30.07 "Hg6 mi
3:54 AM38 °FPassing clouds.No wind97%30.07 "Hg8 mi
3:01 AM39 °FFog.No wind96%30.07 "Hg0 mi
1:54 AM40 °FPassing clouds.No wind93%30.08 "Hg9 mi
12:54 AM40 °FPassing clouds.No wind93%30.08 "Hg9 mi
10:54 PM
Oct 19
41 °FPassing clouds.No wind96%30.11 "Hg10 mi
9:54 PM43 °FPassing clouds.No wind86%30.12 "Hg10 mi
8:54 PM45 °FPassing clouds.No wind76%30.13 "Hg10 mi
7:54 PM47 °FPassing clouds.No wind77%30.14 "Hg10 mi
6:54 PM51 °FScattered clouds.5 mph63%30.14 "Hg10 mi
5:54 PM56 °FScattered clouds.3 mph47%30.14 "Hg10 mi
4:54 PM57 °FScattered clouds.3 mph44%30.14 "Hg10 mi
3:54 PM56 °FScattered clouds.7 mph46%30.16 "Hg10 mi
2:54 PM56 °FScattered clouds.N/A46%30.17 "Hg10 mi
1:54 PM54 °FScattered clouds.8 mph49%30.19 "Hg10 mi
12:54 PM53 °FPartly sunny.8 mph51%30.22 "Hg10 mi
11:54 AM50 °FPartly sunny.5 mph57%30.22 "Hg10 mi
10:54 AM50 °FPartly sunny.7 mph57%30.22 "Hg10 mi
Weather by CustomWeather, © 2014

See weather overviewHow to use our weather pages